117  
ASUS41 KALY 270210  
RWRALY  
 
NEW YORK STATE HOURLY WEATHER ROUNDUP  
NATIONAL WEATHER SERVICE ALBANY NY  
1000 PM EDT SUN MAR 26 2017  
 
NOTE: "FAIR" INDICATES FEW OR NO CLOUDS BELOW 12,000 FEET WITH NO  
SIGNIFICANT WEATHER AND/OR NO S TO VISIBILITY
.  
 
NYZ032-033-038>043-046>054-057>066-NYZ062>081-082-084-270300-  
EAST  
 
 
CITY SKY/WX TMP DP RH WIND PRES REMARKS
 
ALBANY CLOUDY 37 30 75 S10 30.35S WCI 30  
GLENS FALLS CLOUDY 33 30 88 CALM 30.33F FOG  
POUGHKEEPSIE CLOUDY 37 31 78 SE9 30.35F WCI 30  
NEWBURGH CLOUDY 37 36 93 E8 30.35F WCI 31  
MONTGOMERY CLOUDY 38 34 85 E5 30.34F WCI 34  
WHITE PLAINS LGT RAIN 36 35 96 E8 30.34F VSB 1 WCI 30  
ISLIP DRIZZLE 38 38 100 E10 30.36R FOG WCI 31  
NEW YORK CITY DRIZZLE 41 37 86 NE14 30.35F FOG  
CENTRAL PARK CLOUDY 39 38 96 CALM 30.37F FOG  

 
 
NYZ005>009-017-018-044>046-055-056-270300-  
CENTRAL  
 
 
CITY SKY/WX TMP DP RH WIND PRES REMARKS
 
FULTON CLOUDY 38 33 82 SE8 30.14S WCI 32  
SYRACUSE CLOUDY 40 36 86 E10 30.15F WCI 33  
ROME CLOUDY 36 31 82 SE12 30.24S WCI 28  
ELMIRA CLOUDY 43 36 76 CALM 30.17S  
BINGHAMTON CLOUDY 33 32 96 SE12 30.19R FOG WCI 24  
MONTICELLO CLOUDY 32 32 100 E9 30.30S WCI 24  

 
 
NYZ026>034-041>043-087-270300-  
NORTH  
 
 
CITY SKY/WX TMP DP RH WIND PRES REMARKS
 
WATERTOWN CLOUDY 42 38 85 S6 30.14F  
FORT DRUM NOT AVBL  
MASSENA CLOUDY 34 29 82 E5 30.21F WCI 30  
SARANAC LAKE CLOUDY 32 32 100 CALM 30.14F  
PLATTSBURGH CLOUDY 36 28 73 S21 30.23F WCI 25  

 
 
NYZ001>004-010>016-019>021-085-270300-  
WEST  
 
 
CITY SKY/WX TMP DP RH WIND PRES REMARKS
 
NIAGARA FALLS CLOUDY 53 42 66 S10 29.97F  
BUFFALO CLOUDY 50 43 77 S13 29.99S  
DUNKIRK LGT RAIN 51 44 77 S21G26 29.96F  
JAMESTOWN CLOUDY 45 39 81 S12 30.00F  
WELLSVILLE CLOUDY 42 39 89 S10G24 30.09S  
ROCHESTER LGT RAIN 46 42 86 S12 30.05F  
PENN YAN LGT RAIN 43 36 76 S15 30.12S  

 
 
KEY  
WCI = WIND CHILL INDEX  
VSB = VISIBILITY  
HX = HEAT INDEX  

 
 
 
CLICK HERE TO GO TO PREVIOUS BULLETINS.

The Nexlab NY Page
The Nexlab VT Page
The Nexlab MA Page
The Nexlab CT Page Main Text Page